Regional Weather Roundup
Issued by NWS

Home | Current Version | Previous Version | Graphics & Text | Print | Product List | Glossary On
Versions: 1 2 3 4 5 6 7 8 9 10 11 12 13 14 15 16 17 18 19 20 21 22 23 24 25 26 27 28 29 30 31 32 33 34 35 36 37 38 39 40 41 42 43 44 45 46 47 48 49 50
000
ASUS43 KBIS 141302
RWRND

NORTH DAKOTA REGIONAL WEATHER ROUNDUP
NATIONAL WEATHER SERVICE BISMARCK ND
700 AM CST SUN FEB 14 2016

NOTE: "FAIR" INDICATES FEW OR NO CLOUDS BELOW 12,000 FEET WITH NO
SIGNIFICANT WEATHER AND/OR OBSTRUCTIONS TO VISIBILITY.


NDZ001>003-009>011-017-141400-
NORTHWEST NORTH DAKOTA

CITY           SKY/WX    TMP DP  RH WIND       PRES   REMARKS
WILLISTON      CLOUDY    22  19  89 W9        29.74F WCI  12
MINOT          CLOUDY    26  20  77 W14       29.70F WCI  14
MINOT AFB      CLOUDY    22  22  99 CALM      29.70F
$$

NDZ018>021-031>035-040>046-141400-
SOUTHWEST NORTH DAKOTA

CITY           SKY/WX    TMP DP  RH WIND       PRES   REMARKS
BISMARCK       LGT SNOW  28  24  85 W7        29.75F FOG
DICKINSON      CLEAR     24  22  91 W10       29.71F WCI  14
GARRISON         N/A     28  25  88 NW13      29.71F WCI  17
HETTINGER ARPT CLEAR     23  21  92 W6        29.77F WCI  16
$$

NDZ004>008-012>016-024-026-027-054-141400-
NORTHEAST NORTH DAKOTA

CITY           SKY/WX    TMP DP  RH WIND       PRES   REMARKS
GRAND FORKS    LGT SNOW  14   9  80 S18G30    29.86F WCI  -3
GRND FRKS AFB  CLOUDY    13   8  81 S20G28    29.83F WCI  -5
DEVILS LAKE    FLURRIES  14  10  84 S13       29.73F WCI   0
$$

NDZ022-023-025-028>030-036>039-047>053-141400-
SOUTHEAST NORTH DAKOTA

CITY           SKY/WX    TMP DP  RH WIND       PRES   REMARKS
FARGO          LGT SNOW  14   9  80 S20G30    29.90F WCI  -3
JAMESTOWN      LGT SNOW  14  11  87 S16       29.76F FOG     WCI  -2
$$




USA.gov is the U.S. government's official web portal to all federal, state and local government web resources and services.